SCP
0 0 0 0 0 0 0 0 0 0 0 0 -0 -0 -0 -0 -0 -0 -0 -0 -0 0 0 0 0 -0 -0 -0 -0 -0 -0 0
0 0 0 0 0 0 0 0 0 0 0 0 0 0 -0 -0 0 -0 -0 -0 0 0 0 0 0 0 -0 -0 -0 0 0 0
0 0 0 0 0 0 0 0 0 0 0 -0 0 0 0 -0 0 -0 -0 -0 0 0 0 0 0 -0 -0 -0 -0 0 -0 -0
0 0 0 0 0 0 0 0 0 0 0 -0 -0 0 0 -0 0 -0 -0 -0 0 0 0 -0 -0 -0 -0 -0 0 0 0 -0
0 0 0 0 0 0 0 0 0 0 0 0 0 0 0 0 0 0 0 -0 -0 0 -0 -0 -0 -0 -0 -0 0 0 -0 -0
0 0 0 0 0 0 0 0 0 0 0 -0 0 0 0 0 0 -0 -0 -0 -0 -0 -0 -0 -0 -0 -0 -0 0 -1 -1 -0
0 0 0 0 0 0 0 0 0 0 0 -0 0 0 0 0 0 -0 -0 -0 -0 -0 -0 -0 -0 -0 -0 0 -0 -0 -0 0
0 0 0 0 0 0 0 0 0 0 -0 0 0 0 0 0 0 0 0 -0 -0 -0 -1 -1 -1 -1 -0 -0 -0 -0 -0 -0
0 0 0 0 0 0 0 0 0 0 0 0 0 0 0 0 0 0 -0 -0 -0 -1 -0 -0 -1 -0 -0 -0 -0 -0 0 -0
0 0 0 0 0 0 0 0 0 0 0 0 -0 0 0 0 0 0 -0 -0 -0 -0 -0 -0 -0 -0 -0 -0 -0 -0 -0 -0
0 0 0 0 0 0 0 0 0 0 0 0 0 0 0 0 0 0 0 0 -0 -0 -0 -0 -0 0 -0 -0 -0 -0 -0 -0
0 0 0 0 0 0 0 0 0 0 0 0 0 0 0 0 0 0 0 0 0 -0 -0 -0 -0 0 0 -0 -0 0 0 -0
0 0 0 0 0 0 0 0 0 0 0 0 0 0 0 0 0 1 0 0 0 0 -0 -0 0 0 0 0 0 0 1 0
0 0 0 0 0 0 0 0 0 0 0 0 0 0 0 0 0 0 0 0 0 0 0 0 0 0 0 0 0 1 1 1
0 0 0 0 0 0 0 0 0 0 0 0 0 0 0 0 0 0 0 0 0 1 1 1 0 0 0 -1 -1 1 1 1
0 0 0 0 0 0 0 0 0 0 0 0 0 0 0 0 0 0 1 1 1 1 1 3 5 4 1 -4 -1 -0 1 1
0 0 0 0 0 0 0 0 0 0 0 0 0 0 0 0 0 0 0 0 1 2 3 3 1 0 0 -0 1 1 2 1
0 0 0 0 0 0 0 0 0 0 0 0 0 0 0 0 0 0 0 0 0 1 1 1 1 0 1 1 2 2 2 1
0 0 0 0 0 0 0 0 0 0 0 0 0 0 0 0 0 0 0 0 0 1 1 2 1 1 1 -1 1 1 2 0
Wind_Speed_500mb
11 9 16 12 14 1 7 4 6 3 13 24 9 9 5 2 26 42 60 62 60 62 58 55 54 55 58 49 49 45 38 38
9 11 10 14 23 11 2 9 11 7 9 18 25 27 12 7 21 36 52 60 55 61 61 57 55 57 57 56 49 49 44 37
7 19 22 9 9 7 6 4 14 19 14 17 32 24 25 8 23 38 52 57 57 59 64 63 61 57 52 49 44 45 45 43
16 4 6 2 10 16 14 13 6 6 15 11 19 19 21 23 22 37 44 46 55 56 64 65 64 59 49 46 42 33 49 49
9 8 4 10 7 5 5 3 16 17 15 5 14 23 29 24 28 39 33 45 53 55 63 66 65 59 56 57 28 62 68 58
15 23 10 12 13 16 19 8 14 18 24 26 30 25 32 9 19 37 41 45 48 49 60 68 66 59 53 48 58 44 75 56
6 4 9 7 21 26 23 13 13 18 16 27 34 26 29 5 28 36 43 47 53 56 62 63 61 53 44 48 64 44 55 48
6 6 6 6 9 14 12 3 24 25 25 23 46 25 30 15 35 45 49 55 52 57 61 64 59 55 46 49 39 43 51 43
12 2 8 8 25 23 13 16 17 12 17 10 17 19 27 15 40 51 54 54 61 67 67 63 60 56 55 54 43 55 47 39
7 6 10 5 2 8 19 17 24 25 20 18 25 34 35 25 30 39 51 48 57 62 65 61 62 66 64 53 45 46 45 34
6 10 5 6 8 4 5 9 13 9 14 24 21 20 21 5 24 39 44 51 54 56 59 67 78 76 65 57 55 43 41 35
6 8 13 4 7 2 4 9 5 15 16 19 7 8 3 17 11 25 32 48 53 55 61 74 92 79 69 67 43 57 47 43
12 9 6 2 4 8 10 4 22 20 25 19 8 7 22 15 3 9 17 42 49 56 67 84 97 96 78 66 55 54 53 43
5 8 12 9 8 6 13 18 25 29 27 29 22 16 16 8 8 14 23 36 47 51 55 79 95 93 80 74 58 41 51 46
9 3 5 6 9 9 15 23 26 36 39 31 22 9 5 12 19 23 28 35 39 45 52 68 89 85 75 40 59 49 46 50
5 3 1 6 5 17 25 26 26 30 33 28 18 7 9 13 23 29 31 34 39 48 53 57 65 58 61 52 62 61 46 52
2 6 1 9 6 23 26 29 26 25 32 28 20 6 11 20 27 32 35 39 57 66 70 74 80 43 26 88 65 51 55 63
7 8 6 8 18 19 30 33 29 26 29 33 23 6 15 25 26 29 36 40 46 43 51 60 64 61 64 74 60 63 68 72
14 8 10 17 17 24 34 31 29 27 20 29 24 7 18 31 28 26 27 31 30 29 27 34 52 74 73 68 68 61 61 61
Wind_Direction_500mb
216 160 184 168 209 40 146 110 259 302 278 275 272 262 308 247 190 193 195 196 200 206 212 217 219 218 217 216 216 214 218 220
142 129 59 214 149 174 179 229 247 220 276 272 300 308 325 210 181 185 189 195 196 203 211 215 219 220 220 222 219 218 215 217
165 209 173 154 188 64 135 272 256 266 261 238 259 279 293 251 187 185 184 189 193 200 210 215 220 222 220 222 222 223 215 217
211 74 14 221 195 190 216 206 244 289 263 260 269 278 280 287 204 196 190 182 192 198 208 212 220 221 218 220 218 240 231 216
180 172 141 225 175 160 119 127 220 254 270 169 260 270 275 269 203 197 178 185 192 196 204 211 217 221 213 207 149 226 237 221
199 195 164 173 186 200 211 185 238 233 262 270 274 275 278 253 199 200 189 193 193 191 202 211 216 219 212 204 206 227 216 213
190 178 185 191 179 191 204 212 227 256 219 259 264 268 280 280 183 197 188 190 196 191 200 203 212 212 204 195 200 210 210 208
130 147 185 224 237 207 245 219 247 269 271 274 278 259 263 224 183 195 196 199 196 194 198 201 205 202 204 207 208 204 206 201
156 108 161 236 230 201 204 212 231 234 273 329 309 269 260 235 191 197 203 198 197 200 198 200 199 193 186 203 204 194 196 199
132 172 215 33 89 277 235 245 228 262 279 288 288 281 282 272 206 210 209 203 202 197 196 195 190 186 191 195 186 170 175 200
199 199 341 253 148 184 242 232 206 266 315 306 303 284 279 246 220 230 218 211 211 204 195 185 178 177 191 192 192 180 185 191
164 195 211 244 122 65 196 258 120 321 320 308 280 234 168 26 248 232 213 216 206 200 193 185 178 179 184 184 182 186 189 195
182 219 239 316 38 143 215 346 327 330 317 295 253 286 336 6 340 221 204 205 202 204 203 191 183 184 188 198 205 192 190 196
164 186 214 27 129 235 342 330 333 334 326 305 277 270 354 43 129 147 163 179 196 195 199 193 190 193 199 205 207 186 184 192
221 65 85 46 81 3 341 320 329 327 322 311 286 272 37 114 118 127 140 155 177 182 185 188 197 204 214 225 213 187 196 188
196 54 301 155 91 24 358 332 327 342 334 331 304 295 195 151 137 138 146 151 159 171 175 176 186 192 213 260 237 220 200 189
183 262 60 102 338 333 351 360 352 347 356 348 346 358 184 177 158 156 154 154 157 157 158 163 170 215 300 235 230 211 197 195
174 122 66 353 338 344 344 349 346 342 350 4 339 342 196 186 176 160 165 159 176 197 207 214 216 215 199 198 189 189 189 190
161 166 325 334 2 354 346 352 347 344 337 349 354 319 195 206 194 186 201 206 208 221 242 210 209 202 198 178 175 174 194 203
Wind_Speed_850mb
11 9 16 12 14 1 7 4 6 3 13 24 9 9 5 2 26 42 60 62 60 62 58 55 54 55 58 49 49 45 38 38
9 11 10 14 23 11 2 9 11 7 9 18 25 27 12 7 21 36 52 60 55 61 61 57 55 57 57 56 49 49 44 37
7 19 22 9 9 7 6 4 14 19 14 17 32 24 25 8 23 38 52 57 57 59 64 63 61 57 52 49 44 45 45 43
16 4 6 2 10 16 14 13 6 6 15 11 19 19 21 23 22 37 44 46 55 56 64 65 64 59 49 46 42 33 49 49
9 8 4 10 7 5 5 3 16 17 15 5 14 23 29 24 28 39 33 45 53 55 63 66 65 59 56 57 28 62 68 58
15 23 10 12 13 16 19 8 14 18 24 26 30 25 32 9 19 37 41 45 48 49 60 68 66 59 53 48 58 44 75 56
6 4 9 7 21 26 23 13 13 18 16 27 34 26 29 5 28 36 43 47 53 56 62 63 61 53 44 48 64 44 55 48
6 6 6 6 9 14 12 3 24 25 25 23 46 25 30 15 35 45 49 55 52 57 61 64 59 55 46 49 39 43 51 43
12 2 8 8 25 23 13 16 17 12 17 10 17 19 27 15 40 51 54 54 61 67 67 63 60 56 55 54 43 55 47 39
7 6 10 5 2 8 19 17 24 25 20 18 25 34 35 25 30 39 51 48 57 62 65 61 62 66 64 53 45 46 45 34
6 10 5 6 8 4 5 9 13 9 14 24 21 20 21 5 24 39 44 51 54 56 59 67 78 76 65 57 55 43 41 35
6 8 13 4 7 2 4 9 5 15 16 19 7 8 3 17 11 25 32 48 53 55 61 74 92 79 69 67 43 57 47 43
12 9 6 2 4 8 10 4 22 20 25 19 8 7 22 15 3 9 17 42 49 56 67 84 97 96 78 66 55 54 53 43
5 8 12 9 8 6 13 18 25 29 27 29 22 16 16 8 8 14 23 36 47 51 55 79 95 93 80 74 58 41 51 46
9 3 5 6 9 9 15 23 26 36 39 31 22 9 5 12 19 23 28 35 39 45 52 68 89 85 75 40 59 49 46 50
5 3 1 6 5 17 25 26 26 30 33 28 18 7 9 13 23 29 31 34 39 48 53 57 65 58 61 52 62 61 46 52
2 6 1 9 6 23 26 29 26 25 32 28 20 6 11 20 27 32 35 39 57 66 70 74 80 43 26 88 65 51 55 63
7 8 6 8 18 19 30 33 29 26 29 33 23 6 15 25 26 29 36 40 46 43 51 60 64 61 64 74 60 63 68 72
14 8 10 17 17 24 34 31 29 27 20 29 24 7 18 31 28 26 27 31 30 29 27 34 52 74 73 68 68 61 61 61
Wind_Direction_850mb
216 160 184 168 209 40 146 110 259 302 278 275 272 262 308 247 190 193 195 196 200 206 212 217 219 218 217 216 216 214 218 220
142 129 59 214 149 174 179 229 247 220 276 272 300 308 325 210 181 185 189 195 196 203 211 215 219 220 220 222 219 218 215 217
165 209 173 154 188 64 135 272 256 266 261 238 259 279 293 251 187 185 184 189 193 200 210 215 220 222 220 222 222 223 215 217
211 74 14 221 195 190 216 206 244 289 263 260 269 278 280 287 204 196 190 182 192 198 208 212 220 221 218 220 218 240 231 216
180 172 141 225 175 160 119 127 220 254 270 169 260 270 275 269 203 197 178 185 192 196 204 211 217 221 213 207 149 226 237 221
199 195 164 173 186 200 211 185 238 233 262 270 274 275 278 253 199 200 189 193 193 191 202 211 216 219 212 204 206 227 216 213
190 178 185 191 179 191 204 212 227 256 219 259 264 268 280 280 183 197 188 190 196 191 200 203 212 212 204 195 200 210 210 208
130 147 185 224 237 207 245 219 247 269 271 274 278 259 263 224 183 195 196 199 196 194 198 201 205 202 204 207 208 204 206 201
156 108 161 236 230 201 204 212 231 234 273 329 309 269 260 235 191 197 203 198 197 200 198 200 199 193 186 203 204 194 196 199
132 172 215 33 89 277 235 245 228 262 279 288 288 281 282 272 206 210 209 203 202 197 196 195 190 186 191 195 186 170 175 200
199 199 341 253 148 184 242 232 206 266 315 306 303 284 279 246 220 230 218 211 211 204 195 185 178 177 191 192 192 180 185 191
164 195 211 244 122 65 196 258 120 321 320 308 280 234 168 26 248 232 213 216 206 200 193 185 178 179 184 184 182 186 189 195
182 219 239 316 38 143 215 346 327 330 317 295 253 286 336 6 340 221 204 205 202 204 203 191 183 184 188 198 205 192 190 196
164 186 214 27 129 235 342 330 333 334 326 305 277 270 354 43 129 147 163 179 196 195 199 193 190 193 199 205 207 186 184 192
221 65 85 46 81 3 341 320 329 327 322 311 286 272 37 114 118 127 140 155 177 182 185 188 197 204 214 225 213 187 196 188
196 54 301 155 91 24 358 332 327 342 334 331 304 295 195 151 137 138 146 151 159 171 175 176 186 192 213 260 237 220 200 189
183 262 60 102 338 333 351 360 352 347 356 348 346 358 184 177 158 156 154 154 157 157 158 163 170 215 300 235 230 211 197 195
174 122 66 353 338 344 344 349 346 342 350 4 339 342 196 186 176 160 165 159 176 197 207 214 216 215 199 198 189 189 189 190
161 166 325 334 2 354 346 352 347 344 337 349 354 319 195 206 194 186 201 206 208 221 242 210 209 202 198 178 175 174 194 203